Location: Arboyeti
(42.1122°N, 44.6017°E)
Time: 05:38:06
(UTC+00:00)

SJ-6B - Pass Details

Date: 19 April 2021
Orbit: 510 x 580 km, 97.6° (Epoch: 09 May)

Event Time Altitude Azimuth Distance (km) Brightness Sun altitude
Exits shadow 16:19:08 - 144° (SE) 2,235 5.4 -6.4°
Reaches altitude 10° 16:20:24 10° 138° (SE) 1,726 4.8 -6.6°
Maximum altitude 16:23:49 36° 72° (ENE) 834 3.4 -7.2°
Drops below altitude 10° 16:27:16 10° 5° (N) 1,749 5.6 -7.8°
Sets 16:29:29 0° 357° (N) 2,648 6.7 -8.2°
